Dewpoint
12 3 4 7 9 14 24 41 38 39 48 49 51 51 50 50 53 58 59 62 61 56 55 55 56 55 56 57 59 62 63 58 56 56 56 57 57 57 57 58 59 59 60 63 63 64 65 66 67 67 68 68 69 69 69 69 69 69 70 70 70 70 70 71 70 70 69 69 69 68 68 68 68 69 69 71 72 73 74 75 76 76 77 77 77 78
10 7 4 3 13 16 18 29 28 32 45 46 49 48 49 50 49 54 58 62 61 56 54 56 56 56 57 58 59 62 62 60 57 57 57 57 58 58 58 58 59 60 65 64 63 64 65 66 67 67 67 69 68 68 69 69 69 69 70 70 70 70 70 70 70 70 69 69 68 68 68 67 68 70 71 70 72 73 73 75 76 77 77 76 77 79
11 2 2 4 9 15 18 20 22 20 24 34 38 48 48 50 53 58 60 61 61 57 52 56 55 55 56 56 58 60 62 62 62 59 59 58 58 58 58 59 60 62 62 62 62 64 65 66 67 67 67 68 68 68 68 68 69 69 69 70 70 70 70 70 70 70 69 69 70 68 68 68 68 69 71 70 72 74 73 74 76 77 76 76 77 78
12 4 4 5 10 12 15 19 20 21 21 32 47 46 41 49 49 45 53 60 60 55 52 55 55 54 55 56 57 59 62 62 62 63 63 62 59 58 58 59 60 61 61 61 62 63 64 65 66 67 67 67 67 68 68 68 68 68 70 69 69 69 69 69 70 71 69 69 69 69 69 69 69 70 72 72 73 74 74 74 75 76 76 76 76 77
4 6 12 9 10 10 9 12 14 14 12 34 40 47 48 51 51 47 54 59 59 58 57 54 48 48 51 54 55 57 61 61 62 64 63 63 64 61 60 60 61 61 61 61 61 62 64 65 66 66 67 67 67 67 67 68 68 68 68 69 69 69 69 69 71 71 69 71 70 71 71 72 71 71 71 71 72 73 74 74 75 75 76 76 76 76
7 8 9 9 11 12 13 10 11 14 16 29 42 45 46 52 54 58 59 56 52 51 55 51 39 40 45 51 54 54 59 60 60 62 62 62 63 62 59 59 60 61 61 61 61 62 63 64 65 66 67 67 67 67 67 67 67 67 68 68 69 69 69 68 69 70 70 71 69 69 68 68 69 69 69 69 70 71 73 73 74 75 76 75 76 76
11 13 11 11 11 13 13 11 12 16 15 33 36 44 50 53 56 57 56 50 45 44 50 53 41 35 43 46 51 53 56 58 59 61 62 62 62 63 59 59 60 60 61 61 61 61 63 64 65 65 66 66 66 66 67 67 67 67 67 68 68 68 69 69 69 70 71 70 69 68 67 67 67 68 68 70 70 71 72 74 74 75 76 76 75 76
15 13 11 12 13 13 13 12 11 14 26 25 21 47 53 55 56 56 53 49 47 52 53 52 45 40 41 44 52 54 54 55 57 59 61 62 62 63 61 59 60 60 60 61 61 61 62 64 64 65 65 66 66 66 66 66 66 67 67 67 68 68 70 69 69 70 70 69 69 68 68 68 67 67 68 69 70 71 73 73 74 74 75 75 75 75
11 9 8 10 12 8 7 10 13 12 10 9 42 51 53 54 55 55 50 47 47 46 41 47 50 43 41 43 50 54 52 53 55 57 59 61 62 63 64 61 59 60 60 60 61 61 62 63 64 65 65 65 66 65 65 66 66 66 67 68 68 68 69 69 70 70 70 70 69 68 68 68 69 68 68 71 73 72 74 73 73 74 74 74 75 75
17 8 9 7 7 5 8 8 11 7 11 46 52 52 52 50 50 50 47 45 42 39 36 44 48 41 40 42 49 52 51 51 53 55 57 59 61 63 64 63 61 60 60 60 61 61 62 63 64 64 65 65 65 65 65 65 65 66 67 67 67 67 68 69 70 71 70 69 70 68 68 68 68 70 70 71 72 71 73 72 72 73 73 73 74 74
16 38 34 10 6 6 8 10 9 22 29 48 50 49 46 44 44 43 40 42 40 35 38 40 48 40 33 37 47 48 49 52 52 54 56 58 60 62 63 64 62 60 60 60 60 61 61 63 64 64 64 65 65 64 64 64 65 65 66 67 67 67 68 69 70 70 70 69 70 68 68 68 68 69 69 69 70 71 72 71 71 72 72 73 73 74
18 19 21 22 33 13 8 7 11 33 41 41 41 46 45 42 39 40 36 39 35 34 36 38 47 42 34 37 44 49 53 55 54 54 54 56 59 60 62 64 63 61 60 60 60 60 61 63 63 64 64 64 64 64 64 64 65 66 66 66 67 67 67 68 70 70 70 69 69 69 69 69 69 69 69 69 69 70 71 71 71 72 72 72 73 74
15 17 17 15 49 8 7 5 8 17 18 41 42 34 31 22 37 38 31 36 33 33 39 46 48 44 43 38 46 47 50 52 55 56 56 56 57 60 62 63 64 62 60 60 60 60 61 62 63 63 64 65 64 64 63 63 64 65 66 66 66 66 67 68 69 70 70 70 70 69 69 69 70 69 70 69 69 70 70 71 71 71 71 72 72 73
15 17 16 15 14 31 7 4 9 14 18 38 39 23 25 26 22 29 27 29 27 30 39 45 46 41 43 45 47 47 51 54 55 57 58 58 57 59 61 63 63 63 61 60 60 60 60 61 62 63 64 64 64 63 63 63 65 65 65 66 66 66 67 68 69 70 70 70 70 70 69 69 70 70 70 69 69 69 70 71 71 71 71 71 72 72
15 14 15 16 13 17 13 9 8 9 18 15 18 17 22 23 21 19 22 25 25 30 41 45 40 39 38 44 50 50 53 56 58 59 60 60 60 59 60 62 63 63 61 60 60 60 60 61 62 63 64 64 63 63 63 63 65 66 66 66 67 66 67 67 68 70 70 70 70 70 70 70 70 70 70 70 70 70 70 70 71 71 71 71 72 72
14 17 17 18 18 17 16 21 24 28 27 27 20 22 18 21 27 16 24 29 29 35 35 40 37 41 41 47 53 55 55 56 58 58 61 60 62 62 62 62 63 63 62 61 61 60 60 61 62 63 64 64 64 64 64 63 65 66 66 66 66 66 66 67 68 69 70 70 70 71 71 71 71 72 71 71 72 71 70 71 71 71 72 72 72 73
24 15 14 19 22 18 17 26 27 25 21 27 28 26 29 32 38 39 42 35 33 29 28 40 40 43 45 47 50 54 54 55 56 57 59 59 61 62 62 62 63 63 63 61 61 61 61 61 62 63 63 63 64 63 63 64 65 66 66 66 66 66 66 66 68 68 70 70 70 71 71 71 71 71 70 70 70 70 71 71 71 71 71 72 72 72
14 14 14 19 24 28 28 31 31 31 25 30 28 29 36 37 33 29 25 29 29 25 27 38 39 40 37 38 50 53 54 54 55 56 58 58 60 61 61 62 63 63 63 63 63 63 62 61 62 63 63 64 64 63 64 65 65 66 66 66 66 66 66 66 67 67 68 70 70 70 70 71 71 71 71 70 70 70 71 72 72 72 72 72 72 73
14 13 12 15 20 23 25 28 28 32 33 25 30 36 29 29 27 31 27 23 23 23 26 31 38 42 39 40 47 50 53 53 55 56 56 58 59 59 60 62 62 63 63 62 63 64 64 63 62 63 64 64 65 65 64 64 65 66 66 66 66 66 66 66 66 66 68 69 69 70 70 70 71 72 72 72 72 72 71 71 71 72 72 72 73 74
21 11 15 16 19 18 21 26 23 31 32 33 33 31 38 38 33 30 28 30 28 25 28 27 35 33 43 43 50 51 53 54 55 55 56 57 59 60 60 61 62 62 63 64 64 65 66 67 67 67 66 66 67 65 65 65 64 65 65 66 66 67 67 67 66 67 67 68 68 69 70 70 71 72 72 72 72 72 71 71 71 72 72 72 73 73
16 19 13 12 18 21 21 27 24 32 31 31 30 30 33 36 39 37 40 33 28 29 28 27 28 34 38 44 52 52 54 55 56 56 56 57 58 60 61 61 62 63 63 64 64 64 65 66 66 66 66 67 66 65 65 65 64 65 65 66 67 66 66 66 67 67 67 68 68 69 69 69 70 70 71 72 72 72 72 72 73 72 72 73 73 73
16 21 15 19 18 20 20 26 23 31 31 31 31 31 34 33 32 28 30 37 37 31 27 28 28 33 38 53 54 54 55 57 57 57 57 58 59 59 60 61 63 63 63 64 64 65 66 66 66 66 66 66 64 65 64 64 65 65 65 65 66 66 66 66 67 68 68 68 68 68 68 69 69 70 71 71 72 72 72 72 73 73 73 72 72 73
18 24 18 18 19 21 20 22 28 28 33 32 30 32 35 36 35 33 24 31 36 39 37 33 31 35 43 50 56 56 57 58 58 58 58 59 59 59 60 62 63 63 64 64 65 65 65 65 65 66 66 67 66 65 65 64 64 65 66 67 67 67 67 67 67 68 68 68 69 69 68 69 69 70 70 70 71 71 71 71 72 73 72 71 72 73
57 23 22 23 31 35 29 29 33 36 34 32 35 37 33 32 34 32 31 35 34 38 34 34 33 36 42 52 56 56 57 58 57 58 58 59 59 60 61 62 62 63 63 63 64 66 66 65 66 65 65 66 67 66 65 64 64 65 66 67 67 67 68 68 68 68 69 68 68 69 69 69 69 69 70 70 70 70 71 71 71 72 71 71 71 71
20 25 23 24 27 29 29 31 31 33 37 39 35 39 40 41 39 39 39 39 36 37 35 31 27 33 40 51 54 56 57 56 56 57 59 58 58 60 60 61 62 62 62 62 63 64 66 66 66 66 66 65 66 66 66 65 64 65 66 67 67 68 68 68 68 68 69 69 68 69 69 69 69 69 70 70 69 69 70 70 70 71 71 70 70 70
23 30 27 24 24 24 23 24 27 28 29 30 40 41 41 38 38 36 34 35 26 35 35 32 31 35 39 45 47 50 52 53 53 55 58 58 58 59 59 61 61 61 61 62 62 64 64 65 66 66 66 66 66 66 66 67 65 65 66 67 67 67 68 68 68 68 69 69 68 69 69 69 69 69 69 70 70 69 69 69 70 70 70 70 70 70
31 37 33 29 26 26 28 31 35 41 24 18 24 35 35 40 39 39 36 31 27 33 35 37 36 35 37 40 45 47 50 51 51 53 57 58 58 58 58 60 61 60 61 62 63 64 64 65 65 65 66 67 67 67 67 66 66 66 66 67 67 68 68 69 69 69 69 69 69 69 68 68 69 69 69 70 70 70 70 69 69 69 69 70 70 70
32 22 26 31 28 26 31 32 24 37 22 25 21 27 32 39 38 36 32 32 36 36 31 40 41 36 36 39 41 43 45 49 52 52 54 56 57 58 58 59 62 60 61 62 62 63 64 64 65 65 66 66 67 68 68 68 67 66 66 66 67 68 68 68 68 69 69 69 69 69 69 69 69 70 70 70 71 71 70 70 69 69 69 70 70 69
26 20 20 26 24 29 28 29 28 27 24 25 21 20 22 38 37 35 35 38 37 32 29 35 40 38 39 41 43 43 45 48 50 52 55 58 58 59 58 58 59 61 62 63 63 63 64 64 65 65 66 66 67 67 67 68 67 67 67 67 68 68 68 69 69 69 68 69 70 70 70 70 70 70 71 71 71 71 71 70 70 70 70 70 70 69
21 22 26 24 23 22 23 24 25 18 27 24 22 20 19 34 38 36 36 41 37 37 38 38 41 39 39 40 43 49 52 53 58 58 58 58 59 59 58 58 61 63 63 64 64 64 64 65 65 65 66 66 67 67 67 67 67 67 67 67 68 69 69 69 69 69 69 69 70 70 70 71 71 71 71 71 71 71 71 70 70 70 70 69 69 70
20 24 34 24 25 24 25 33 23 20 22 23 22 33 30 30 37 40 41 42 41 38 46 44 42 41 43 45 52 57 57 56 56 56 56 58 59 59 58 58 61 62 63 64 64 64 64 65 65 65 65 66 66 67 67 67 67 67 67 68 68 69 70 70 69 69 69 69 70 70 71 71 71 71 71 71 71 71 71 71 71 70 70 70 69 70
27 24 31 29 21 21 24 23 26 31 27 27 31 32 34 35 36 36 37 42 38 38 44 42 38 39 43 49 56 55 55 55 55 56 57 59 59 59 58 58 59 60 61 63 63 64 64 64 65 65 65 66 66 67 67 67 68 68 68 68 68 68 70 70 70 69 69 70 70 70 71 71 71 71 71 71 71 71 71 71 71 71 71 70 69 70
31 28 22 23 19 22 25 31 30 26 24 22 28 29 34 37 38 37 43 45 42 43 42 37 37 41 44 53 54 53 55 54 54 56 56 57 59 58 56 57 59 60 61 63 63 64 64 64 64 64 65 66 66 67 67 68 68 68 68 68 68 69 69 70 70 70 70 70 70 70 71 71 71 71 71 71 71 71 71 71 71 71 71 70 70 70
33 28 26 30 21 24 25 32 29 21 18 22 32 34 34 34 39 37 39 44 48 44 42 42 41 48 54 54 53 52 53 56 57 57 57 58 59 60 61 62 62 62 62 62 63 63 63 63 64 64 65 65 66 67 68 69 69 68 69 69 69 69 69 69 69 70 70 70 70 70 71 71 71 71 71 71 71 71 71 71 71 71 71 70 71 70
34 32 29 33 23 21 29 29 20 17 21 32 36 41 39 38 42 40 49 50 51 52 52 50 52 54 54 54 55 56 56 58 59 60 60 60 61 61 61 61 62 62 62 62 62 63 64 64 64 64 64 65 65 66 67 67 68 69 70 70 69 69 69 69 69 69 70 70 70 71 70 70 70 71 71 71 71 71 71 71 71 71 71 71 71 70
30 28 31 29 29 26 23 24 15 21 29 34 41 47 50 48 49 42 40 42 49 52 51 50 52 54 55 56 57 58 58 59 58 58 60 61 62 61 60 60 61 62 62 62 63 64 64 64 64 65 65 66 66 66 66 66 67 68 68 69 69 69 69 69 68 69 69 70 70 70 70 70 70 70 70 70 71 71 71 71 71 71 71 70 68 66
28 33 26 22 29 22 25 20 21 31 32 40 39 44 45 41 41 35 32 34 45 50 53 52 53 54 55 57 57 58 57 55 51 54 56 60 61 60 60 59 60 62 63 63 64 64 65 65 64 65 65 65 65 65 65 65 65 65 66 67 68 69 69 69 68 68 69 69 69 70 70 70 69 68 68 68 68 69 71 71 71 71 70 68 66 64
30 24 29 24 26 30 23 20 20 19 21 30 38 42 41 43 42 40 36 36 44 49 54 54 54 55 55 55 57 56 51 48 46 48 54 59 61 61 61 62 63 64 64 64 64 64 64 64 64 64 64 63 63 63 64 64 64 64 64 65 66 68 69 69 68 68 68 69 69 69 69 69 69 68 68 67 67 69 71 71 71 70 69 66 63 61
31 33 30 22 26 26 25 21 20 19 24 29 32 35 41 44 43 43 33 29 36 48 55 55 54 54 55 55 55 54 49 44 44 47 52 58 61 63 63 63 64 63 63 64 64 63 64 63 63 63 63 62 62 63 63 63 63 63 63 64 64 65 67 68 68 68 68 69 69 69 69 69 69 69 68 68 68 69 68 68 67 66 64 63 62 61
33 34 28 27 27 28 25 21 18 27 26 32 39 42 43 46 37 33 26 29 37 50 56 56 54 54 54 54 54 52 49 44 46 49 56 61 63 63 62 62 62 62 62 63 63 63 63 62 61 61 61 62 62 63 63 63 63 63 63 63 64 64 64 66 68 69 69 69 69 69 69 70 70 69 69 68 68 69 68 67 64 62 61 61 60 60
27 31 31 23 25 35 29 24 24 24 34 41 43 44 46 44 34 28 25 31 39 50 56 57 55 54 55 55 55 52 53 50 51 57 61 62 62 62 62 62 62 62 62 62 62 63 61 60 60 61 61 62 62 62 62 62 62 62 63 64 64 64 64 66 68 69 69 69 69 69 69 70 70 69 69 68 68 68 67 64 62 61 60 60 59 59
29 33 31 31 28 27 27 22 24 29 34 40 44 45 46 37 28 28 33 40 44 51 56 57 55 54 55 56 55 52 52 55 60 61 62 62 62 61 62 61 61 61 61 62 62 61 60 60 60 61 60 60 60 61 61 61 61 62 63 63 63 64 65 66 67 68 68 68 68 68 69 69 70 69 69 68 68 67 65 63 62 61 60 60 59 59
28 27 26 25 29 28 31 27 23 19 30 41 43 42 40 33 33 37 43 48 50 52 56 57 56 55 55 55 55 54 58 60 61 61 62 62 61 61 61 61 60 59 59 59 58 60 61 60 60 59 59 59 59 60 60 61 61 63 65 65 65 66 66 66 68 68 68 68 68 68 69 69 69 69 69 68 68 65 62 62 61 61 61 59 58 57
37 27 29 31 33 25 26 25 25 28 35 43 39 35 41 41 41 43 48 47 51 52 55 56 56 55 56 55 55 56 59 59 60 61 61 61 61 61 60 60 58 58 58 58 58 59 60 59 59 58 59 59 59 59 60 61 61 63 64 64 66 67 67 67 68 68 67 68 67 68 68 68 68 68 68 67 65 63 61 61 61 61 60 59 58 58
38 34 35 26 35 31 29 30 33 40 39 43 45 44 44 47 47 48 48 48 50 52 54 55 56 56 57 56 56 57 58 60 60 60 60 60 61 60 59 58 57 57 57 57 56 58 58 58 58 58 58 57 58 59 60 61 61 62 62 64 66 67 67 67 67 67 67 67 67 67 67 67 66 66 66 64 63 62 61 61 60 59 59 59 58 58
42 43 42 37 35 40 41 39 43 44 46 46 48 50 49 51 52 49 49 49 52 53 55 54 55 56 57 57 57 57 59 59 59 59 60 60 60 59 58 56 55 55 55 55 56 57 57 57 57 57 57 57 58 59 60 60 61 61 61 63 64 65 65 65 66 66 66 65 66 66 65 64 63 63 63 63 63 62 61 61 60 59 58 58 58 58
41 45 39 34 38 33 28 39 47 44 49 50 50 52 54 52 52 51 51 52 53 55 56 55 56 57 58 57 58 57 57 59 59 60 60 59 57 56 55 55 54 54 54 54 55 57 56 56 55 56 57 56 57 58 58 59 60 61 61 62 62 63 63 63 63 63 63 63 63 63 63 62 62 62 62 62 62 62 61 61 60 59 60 59 58 58
40 42 38 40 38 33 34 41 48 52 52 52 52 49 49 51 53 53 53 54 54 56 56 56 57 57 58 57 57 58 58 59 59 59 58 56 55 55 54 54 53 53 53 54 55 56 54 55 55 56 56 56 57 58 58 59 59 60 60 61 62 61 61 61 62 61 61 62 62 62 62 62 63 62 61 61 61 61 61 61 61 60 60 59 58 56
42 44 38 43 43 46 48 49 50 49 48 50 52 52 52 52 53 55 56 56 57 57 57 57 57 57 58 57 57 58 58 59 59 58 57 54 54 54 53 53 52 52 53 54 54 55 55 56 56 56 56 56 57 58 58 58 59 59 60 60 61 61 61 61 61 60 60 60 60 59 60 59 58 57 56 55 54 54 57 59 59 59 58 60 59 58
36 36 41 45 41 41 43 45 48 41 41 46 49 51 52 53 55 56 56 56 56 57 58 57 57 57 56 57 58 59 58 58 58 57 55 54 54 53 52 52 53 54 55 55 54 55 56 57 56 56 56 56 58 58 58 58 58 58 58 59 60 60 60 61 60 59 59 59 59 59 59 58 57 57 57 56 55 54 52 52 49 54 58 57 57 53
38 41 41 41 39 39 43 47 49 46 45 46 48 51 54 55 56 55 55 55 55 56 57 57 57 56 57 57 58 58 58 58 57 56 55 54 53 53 52 52 53 55 56 54 54 57 58 56 56 56 56 57 58 58 58 58 58 57 58 58 59 59 59 59 60 59 59 59 58 58 58 57 57 57 57 56 56 55 54 52 50 43 46 51 51 47